Total_Precipitation_Accumulation
0.00 0.01 0.05 0.03 0.02 0.02 0.02 0.04 0.07 0.09 0.11 0.11 0.10 0.10 0.10 0.08 0.08 0.07 0.05 0.04 0.03 0.04 0.06 0.08 0.11 0.12 0.11 0.11 0.11 0.09 0.06 0.04 0.04 0.04 0.05 0.05 0.08 0.11 0.16 0.19 0.26 0.19 0.11
0.00 0.01 0.04 0.02 0.01 0.02 0.03 0.05 0.05 0.06 0.08 0.11 0.10 0.13 0.13 0.09 0.08 0.07 0.05 0.04 0.03 0.04 0.05 0.06 0.07 0.09 0.09 0.08 0.08 0.05 0.03 0.02 0.03 0.06 0.06 0.05 0.08 0.12 0.14 0.17 0.32 0.17 0.08
0.00 0.01 0.03 0.02 0.01 0.02 0.02 0.04 0.05 0.05 0.05 0.07 0.09 0.12 0.13 0.15 0.12 0.07 0.05 0.04 0.04 0.04 0.03 0.03 0.04 0.05 0.05 0.04 0.04 0.03 0.02 0.03 0.04 0.08 0.16 0.14 0.06 0.12 0.15 0.15 0.16 0.10 0.07
0.00 0.01 0.01 0.02 0.02 0.01 0.02 0.04 0.06 0.06 0.05 0.06 0.12 0.13 0.12 0.13 0.12 0.10 0.09 0.08 0.07 0.05 0.03 0.03 0.03 0.03 0.04 0.02 0.02 0.01 0.01 0.03 0.05 0.15 0.41 0.28 0.08 0.10 0.15 0.14 0.13 0.09 0.07
0.00 0.02 0.02 0.01 0.01 0.02 0.02 0.03 0.06 0.08 0.07 0.07 0.12 0.12 0.10 0.11 0.13 0.12 0.14 0.14 0.11 0.07 0.04 0.04 0.03 0.03 0.03 0.02 0.01 0.01 0.02 0.03 0.06 0.17 0.27 0.26 0.23 0.14 0.14 0.14 0.15 0.15 0.10
0.01 0.05 0.03 0.02 0.02 0.02 0.02 0.03 0.04 0.07 0.08 0.09 0.11 0.11 0.11 0.14 0.13 0.10 0.13 0.14 0.11 0.07 0.06 0.07 0.07 0.04 0.03 0.02 0.02 0.02 0.03 0.06 0.09 0.12 0.12 0.16 0.25 0.19 0.15 0.24 0.30 0.30 0.23
0.01 0.02 0.02 0.03 0.02 0.02 0.02 0.03 0.04 0.05 0.06 0.07 0.10 0.13 0.12 0.12 0.13 0.12 0.11 0.10 0.08 0.07 0.06 0.11 0.13 0.12 0.08 0.05 0.05 0.05 0.05 0.09 0.14 0.10 0.09 0.19 0.24 0.15 0.19 0.38 0.54 0.52 0.45
0.01 0.02 0.03 0.04 0.04 0.04 0.03 0.03 0.04 0.04 0.05 0.05 0.07 0.10 0.08 0.07 0.07 0.08 0.10 0.10 0.07 0.08 0.11 0.12 0.12 0.14 0.16 0.13 0.09 0.08 0.08 0.09 0.12 0.10 0.11 0.22 0.17 0.15 0.29 0.48 0.63 0.64 0.61
0.02 0.02 0.03 0.04 0.05 0.05 0.04 0.05 0.05 0.06 0.07 0.07 0.07 0.07 0.07 0.07 0.07 0.08 0.09 0.09 0.08 0.09 0.11 0.12 0.09 0.10 0.14 0.14 0.11 0.09 0.09 0.10 0.15 0.16 0.15 0.29 0.29 0.33 0.48 0.61 0.71 0.73 0.70
0.03 0.02 0.03 0.05 0.09 0.09 0.08 0.09 0.09 0.09 0.10 0.10 0.10 0.10 0.10 0.10 0.10 0.12 0.11 0.12 0.12 0.14 0.15 0.15 0.12 0.14 0.15 0.15 0.15 0.14 0.14 0.11 0.08 0.09 0.23 0.29 0.31 0.53 0.77 0.88 0.91 0.94 0.87
0.06 0.05 0.05 0.07 0.11 0.13 0.12 0.12 0.14 0.15 0.15 0.16 0.18 0.17 0.16 0.18 0.23 0.27 0.22 0.27 0.28 0.33 0.35 0.33 0.29 0.29 0.26 0.23 0.28 0.34 0.26 0.13 0.10 0.12 0.17 0.22 0.29 0.61 0.94 1.06 1.12 1.17 1.11
0.11 0.09 0.08 0.09 0.10 0.09 0.11 0.20 0.25 0.26 0.30 0.25 0.32 0.35 0.37 0.42 0.40 0.31 0.39 0.52 0.70 0.83 0.81 0.81 0.79 0.66 0.58 0.56 0.99 0.99 0.33 0.21 0.19 0.18 0.23 0.27 0.42 0.76 1.19 1.23 1.23 1.32 1.30
0.20 0.15 0.11 0.11 0.14 0.16 0.21 0.26 0.32 0.38 0.48 0.42 0.44 0.54 0.64 0.63 0.50 0.42 0.51 0.65 0.82 0.97 1.10 1.41 1.46 1.15 1.18 1.19 1.31 1.05 0.39 0.35 0.36 0.40 0.54 0.62 0.81 1.08 1.45 1.47 1.34 1.30 1.29
0.29 0.26 0.21 0.20 0.26 0.33 0.35 0.44 0.49 0.50 0.56 0.57 0.68 0.76 0.86 0.89 0.79 0.74 0.81 0.88 1.05 1.14 1.44 1.58 1.65 1.51 1.38 1.25 1.17 0.93 0.71 0.68 0.65 0.79 0.98 0.80 0.93 1.21 1.68 1.77 1.56 1.46 1.33
0.60 0.56 0.51 0.46 0.59 0.64 0.62 0.70 0.68 0.70 0.73 0.81 0.93 1.01 1.07 1.11 1.06 1.07 1.15 1.23 1.09 1.22 1.49 1.69 1.64 1.81 1.81 1.64 1.35 1.19 1.03 0.98 0.96 1.02 1.21 1.15 1.16 1.22 1.49 1.78 1.81 1.70 1.59
0.69 0.76 0.79 0.76 0.86 0.89 0.91 1.01 1.02 0.91 0.94 0.96 1.13 1.18 1.28 1.30 1.33 1.41 1.44 1.44 1.26 1.26 1.47 1.70 1.64 1.92 1.86 1.84 1.49 1.35 1.17 1.11 1.04 0.99 1.06 1.19 1.08 1.05 1.17 1.57 1.86 1.86 1.82
0.81 0.92 0.95 0.99 1.19 1.35 1.47 1.54 1.50 1.36 1.25 1.26 1.32 1.38 1.48 1.47 1.58 1.60 1.56 1.51 1.50 1.48 1.64 1.71 1.75 1.89 1.72 1.60 1.49 1.43 1.33 1.22 1.08 1.06 1.13 1.23 1.13 1.04 1.12 1.39 1.71 1.80 1.79
1.01 1.10 1.10 1.22 1.60 1.92 1.99 1.96 1.86 1.68 1.53 1.46 1.53 1.51 1.58 1.62 1.74 1.86 1.67 1.58 1.82 1.84 1.93 2.08 2.02 2.07 2.08 1.93 1.64 1.37 1.26 1.25 1.07 1.08 1.15 1.28 1.33 1.10 1.19 1.38 1.60 1.66 1.80
1.28 1.29 1.40 1.63 1.90 2.14 2.22 2.29 2.13 1.93 1.76 1.61 1.53 1.49 1.54 1.70 1.93 2.20 1.97 1.97 2.09 2.09 2.07 1.85 2.23 2.46 2.36 2.19 1.77 1.45 1.23 1.11 1.06 1.06 1.09 1.06 1.17 1.17 1.11 1.17 1.32 1.39 1.64
1.50 1.62 1.69 1.84 2.09 2.49 2.79 2.83 2.48 2.12 1.88 1.75 1.68 1.69 1.78 2.00 2.19 2.42 2.19 2.14 2.21 2.25 2.16 2.22 2.49 2.48 2.23 2.19 1.74 1.35 1.23 1.03 1.02 0.95 0.90 0.94 0.97 0.93 0.97 1.05 1.22 0.96 1.15
1.74 1.94 2.08 2.31 2.74 3.20 3.19 2.92 2.73 2.45 2.23 2.05 1.93 1.87 1.89 1.92 2.11 2.36 2.19 2.34 2.30 2.16 2.12 2.24 2.45 2.42 2.17 2.38 2.14 1.58 1.17 0.91 0.88 0.80 0.81 0.86 0.85 0.92 0.98 1.04 1.17 1.19 1.18
2.02 2.41 2.62 2.78 3.19 3.48 3.40 3.26 3.06 2.87 2.52 2.40 2.27 2.13 1.94 1.86 1.99 2.10 2.27 2.14 2.13 2.11 2.11 2.26 2.40 2.20 1.92 2.37 2.42 2.23 1.60 1.17 0.86 0.71 0.89 0.98 0.95 1.00 0.97 1.04 1.21 1.39 1.35
1.64 1.87 2.18 2.58 3.03 3.21 3.31 3.25 3.15 3.08 2.67 2.51 2.36 2.21 2.02 1.90 1.87 1.98 2.09 2.09 2.01 1.99 1.98 2.15 2.21 2.16 2.02 2.18 2.39 2.53 2.12 1.54 1.18 0.82 0.79 0.87 1.02 1.13 1.05 1.05 1.11 1.23 1.21
1.21 1.46 1.74 2.12 2.48 2.74 2.89 2.93 2.98 2.89 2.69 2.63 2.46 2.13 1.91 1.79 1.80 1.86 1.88 1.87 1.87 1.82 1.81 1.77 1.88 2.18 2.23 2.04 2.20 2.26 2.18 1.99 1.74 1.18 0.92 0.91 0.99 1.03 1.10 1.02 0.95 1.10 1.22
1.15 1.39 1.61 1.85 2.15 2.40 2.51 2.51 2.53 2.44 2.36 2.30 2.16 1.93 1.78 1.66 1.60 1.52 1.54 1.70 1.76 1.69 1.63 1.65 1.77 1.92 1.95 1.93 2.02 2.13 2.14 2.06 1.82 1.51 1.09 0.94 0.91 0.85 0.92 0.94 0.96 1.01 1.09
1.32 1.52 1.71 1.93 2.17 2.29 2.14 2.00 1.99 2.01 2.04 1.96 1.83 1.68 1.52 1.43 1.36 1.29 1.38 1.51 1.55 1.55 1.55 1.52 1.57 1.67 1.75 1.79 1.86 1.97 1.99 1.88 1.79 1.77 1.40 1.13 0.99 0.75 0.76 0.83 0.89 0.92 0.98